Location: Newark
(45.6439°N, 0.5436°E)
Time: 07:22:24
(UTC+00:00)

N. Korean satellite - Pass Details

Date: 25 November 2019
Orbit: 456 x 506 km, 97.2° (Epoch: 06 December)

Event Time Altitude Azimuth Distance (km) Brightness Sun altitude
Rises 05:08:17 0° 24° (NNE) 2,604 10.5 -20.9°
Reaches altitude 10° 05:10:42 10° 39° (NE) 1,707 9.7 -20.4°
Maximum altitude 05:13:42 23° 94° (E) 1,074 9.1 -19.9°
Drops below altitude 10° 05:16:39 10° 149° (SSE) 1,672 9.8 -19.4°
Sets 05:18:59 0° 164° (SSE) 2,537 10.6 -19.0°
